#timestamp,LO_Frequency,Hit,StdDev 
1696168815.4,286046997.4,N
1696168835.3,286046996.8,N
1696168855.1,286046997.7,N
1696168875.9,286046995.1,N
1696168895.7,286046997.8,N
1696168915.5,286046995.4,N
1696168935.4,286046995.2,N
1696168955.2,286046997.6,N
1696168975.0,286046995.6,N
1696168975.9,286046995.6,N
1696168995.8,286046994.5,N
1696169015.6,286046993.0,N
1696169035.5,286046990.6,N
1696169055.3,286046993.2,N
1696169075.1,286046990.9,N
1696169095.9,286046991.3,N
1696169115.7,286046991.4,N
1696169135.6,286046991.0,N
1696169155.4,286046991.0,N
1696169175.2,286046965.8,N
1696169195.1,286046990.9,N
1696169196.0,286046990.9,N
1696169215.8,286046993.0,N
1696169235.6,286046990.2,N
1696169255.5,286046991.3,N
1696169275.3,286046991.6,N
1696169295.2,286046991.5,N
1696169315.0,286046993.1,N
1696169315.9,286046993.1,N
1696169335.7,286046990.1,N
1696169385.6,286046991.2,E
1696169395.5,286046994.5,N
1696169415.4,286046999.1,P
1696169435.2,286046998.9,N
1696169455.0,286046997.9,N
1696169456.0,286046997.9,N
1696169475.8,286046997.8,N
1696169495.6,286046994.9,Y
1696169515.5,286046999.4,P
1696169535.3,286046998.3,N
1696169555.1,286046999.2,N
1696169575.9,286046999.3,N
1696169595.7,286046999.2,N
1696169615.6,286046996.9,Y
1696169635.4,286046998.2,P
1696169655.2,286046999.4,N
1696169705.1,286047000.7,E
1696169715.0,286046998.5,N
1696169715.9,286046998.5,P
1696169735.8,286047000.1,P
1696169755.6,286047001.2,N
1696169775.4,286047000.3,N
1696169795.3,286047000.7,N
1696169815.1,286047000.7,N
1696169835.9,286047001.2,N
1696169855.7,286047000.1,N
1696169875.5,286047000.9,N
1696169895.4,286047000.5,N
1696169915.2,286047000.6,N
1696169935.0,286046998.3,N
1696169935.9,286046998.3,N
1696169955.8,286046999.8,N
1696169975.6,286046999.9,N
1696169995.5,286047000.1,N
1696170015.3,286047000.8,N
1696170035.1,286046998.5,N
1696170055.9,286046998.8,N
1696170075.7,286046998.6,N
1696170095.5,286047000.3,N
1696170115.4,286047000.2,N
1696170135.2,286047000.9,N
1696170155.1,286046999.1,N
1696170156.0,286046999.1,N
1696170175.8,286046996.7,Y
1696170195.6,286046997.9,P
1696170215.5,286046994.9,P
1696170235.3,286046997.3,N
1696170255.1,286046997.7,N
1696170275.9,286046997.7,N
1696170295.7,286046998.0,N
1696170315.6,286046999.2,N
1696170335.4,286046998.4,N
1696170355.2,286046998.5,N
1696170375.1,286047000.1,N
1696170376.0,286047000.1,N
1696170395.8,286046999.8,N
1696170415.6,286046999.7,N
1696170435.5,286047000.7,N
1696170455.3,286046996.5,N
1696170475.2,286046999.6,N
1696170495.9,286046996.6,N
1696170515.7,286046998.0,N
1696170535.6,286046997.9,N
1696170555.4,286046997.5,N
1696170575.2,286046999.4,N
1696170595.1,286046998.9,N
1696170596.0,286046998.9,N
1696170615.8,286046998.1,N
1696170635.7,286046998.4,N
1696170655.5,286046998.7,N
1696170675.3,286047000.8,N
1696170695.2,286046998.2,N
1696170715.0,286046998.4,N
1696170715.9,286046998.4,N
1696170735.8,286046998.4,N
1696170755.6,286047000.8,N
1696170775.4,286046998.5,N
1696170795.3,286047000.4,N
1696170815.1,286047000.9,N
1696170835.9,286046998.4,N
1696170855.7,286046998.4,N
1696170875.5,286046998.3,N
1696170895.4,286046998.6,N
1696170915.2,286046998.3,N
1696170935.0,286046998.5,N
1696170935.9,286046998.5,N
1696170955.8,286047000.8,N
1696170975.6,286047001.1,N
1696170995.5,286047000.0,N
1696171015.3,286047000.5,N
1696171035.1,286047000.2,N
1696171055.9,286047002.8,N
1696171075.7,286047004.0,Y
1696171095.6,286047005.9,P
1696171115.4,286047005.9,N
1696171135.2,286047005.7,N
1696171155.1,286047005.8,N
1696171156.0,286047005.8,N
1696171175.8,286047005.6,N
1696171195.6,286047005.7,N
1696171215.5,286047005.6,N
1696171235.3,286047006.0,N
1696171255.1,286047004.7,N
1696171275.9,286047007.2,Y
1696171295.7,286047002.4,P
1696171315.6,286047000.9,N
1696171335.4,286047001.1,N
1696171355.2,286046998.4,N
1696171375.1,286046999.6,N
1696171376.0,286046999.6,N
1696171395.8,286046997.1,N
1696171415.7,286046996.5,N
1696171435.5,286046997.0,N
1696171455.3,286046999.1,N
1696171475.2,286046997.0,N
1696171495.9,286046998.8,N
1696171515.7,286046997.0,N
1696171535.6,286047000.8,N
1696171555.4,286046998.6,N
1696171575.3,286046999.3,N
1696171595.1,286046998.4,N
1696171596.0,286046998.4,N
1696171615.8,286046998.8,N
1696171635.7,286046999.1,N
1696171655.5,286046998.7,N
1696171675.3,286046999.0,N
1696171695.2,286046998.8,N
1696171715.0,286047001.0,N
1696171715.9,286047001.0,N
1696171735.8,286046998.4,N
1696171755.6,286046999.4,N
1696171775.4,286046996.5,N
1696171795.3,286046997.1,N
1696171815.1,286046997.0,N
1696171835.8,286046999.2,N
1696171855.7,286046999.1,N
1696171875.5,286046998.7,N
1696171895.4,286046999.2,N
1696171915.2,286046997.1,N
1696171935.0,286046997.1,N
1696171935.9,286046997.1,N
1696171955.8,286046997.5,N
1696171975.6,286046999.1,N
1696171995.4,286046999.3,N
1696172015.3,286046998.8,N
1696172035.1,286046999.2,N
1696172055.9,286046998.6,N
1696172075.7,286046998.2,N
1696172095.5,286047001.2,N
1696172115.4,286047000.7,N
1696172135.2,286047001.1,N
1696172155.1,286046998.2,N
1696172156.0,286046998.2,N
1696172175.8,286047000.5,N
1696172195.6,286047002.4,N
1696172215.5,286047004.3,N
1696172235.3,286047001.4,N
1696172255.1,286047004.0,N
1696172275.9,286047006.0,Y
1696172295.7,286047005.3,P
1696172315.6,286047006.0,N
1696172335.4,286047006.0,N
1696172355.2,286047003.1,N
1696172375.1,286047004.4,N
1696172376.0,286047004.4,N
1696172395.8,286047003.6,N
